YD6HRD-13 Weather Reports


time (UTC)temp
F
wind
direction
speed
knots
gust
knots
rain 1hr
in
rain 24hr
in
rain mn
in
humidity
%
barometer
mb
20260504223723 80 0.0 0.0 0.00 0.00 0.00 89 1019.5
20260504223223 80 0.0 0.0 0.00 0.00 0.00 89 1019.5
20260504222722 80 0.0 0.0 0.00 0.00 0.00 89 1019.4
20260504222223 80 0.0 0.0 0.00 0.00 0.00 89 1019.4
20260504221723 80 0.0 0.0 0.00 0.00 0.00 89 1019.3
20260504221223 80 0.0 0.0 0.00 0.00 0.00 89 1019.2
20260504220722 80 0.0 0.0 0.00 0.00 0.00 89 1019.1
20260504220223 80 0.0 0.0 0.00 0.00 0.00 89 1019.1
20260504215723 80 0.0 0.0 0.00 0.00 0.00 89 1019.1
20260504215222 80 0.0 0.0 0.00 0.00 0.00 89 1019.1
20260504214723 80 0.0 0.0 0.00 0.00 0.00 89 1019.2
20260504214223 80 0.0 0.0 0.00 0.00 0.00 89 1019.2
20260504213723 80 0.0 0.0 0.00 0.00 0.00 89 1019.2
20260504213222 80 0.0 0.0 0.00 0.00 0.00 89 1019.3
20260504212723 80 0.0 0.0 0.00 0.00 0.00 89 1019.3
20260504212223 80 0.0 0.0 0.00 0.00 0.00 89 1019.3
20260504211722 80 0.0 0.0 0.00 0.00 0.00 89 1019.2
20260504211223 80 0.0 0.0 0.00 0.00 0.00 89 1019.3
20260504210722 80 0.0 0.0 0.00 0.00 0.00 89 1019.4
20260504210223 80 0.0 0.0 0.00 0.00 0.00 89 1019.4
20260504205722 80 0.0 0.0 0.00 0.00 0.00 89 1019.5
20260504205223 80 0.0 0.0 0.00 0.00 0.00 89 1019.5
20260504204723 80 0.0 0.0 0.00 0.00 0.00 89 1019.5
20260504204222 80 0.0 0.0 0.00 0.00 0.00 89 1019.5
20260504203723 80 0.0 0.0 0.00 0.00 0.00 89 1019.6
20260504203222 80 0.0 0.0 0.00 0.00 0.00 89 1019.6
20260504202723 81 0.0 0.0 0.00 0.00 0.00 88 1019.6
20260504202223 81 0.0 0.0 0.00 0.00 0.00 88 1019.6
20260504201723 80 0.0 0.0 0.00 0.00 0.00 89 1019.7
20260504201223 81 0.0 0.0 0.00 0.00 0.00 88 1019.6
20260504200722 81 0.0 0.0 0.00 0.00 0.00 89 1019.7
20260504200223 80 0.0 0.0 0.00 0.00 0.00 89 1019.7
20260504195722 81 0.0 0.0 0.00 0.00 0.00 88 1019.7
20260504195223 81 0.0 0.0 0.00 0.00 0.00 88 1019.6
20260504194722 80 0.0 0.0 0.00 0.00 0.00 89 1019.6
20260504194223 81 0.0 0.0 0.00 0.00 0.00 88 1019.6
20260504193722 81 0.0 0.0 0.00 0.00 0.00 88 1019.7
20260504193223 81 0.0 0.0 0.00 0.00 0.00 88 1019.7
20260504192722 81 0.0 0.0 0.00 0.00 0.00 88 1019.7
20260504192223 81 0.0 0.0 0.00 0.00 0.00 88 1019.7
20260504191723 81 0.0 0.0 0.00 0.00 0.00 88 1019.7
20260504191222 81 0.0 0.0 0.00 0.00 0.00 88 1019.7
20260504190723 81 0.0 0.0 0.00 0.00 0.00 88 1019.7
20260504190223 81 0.0 0.0 0.00 0.00 0.00 87 1019.8
20260504185723 81 0.0 0.0 0.00 0.00 0.00 87 1019.8
20260504185222 81 0.0 0.0 0.00 0.00 0.00 87 1019.9
20260504184723 81 0.0 0.0 0.00 0.00 0.00 87 1020.0
20260504184223 82 0.0 0.0 0.00 0.00 0.00 87 1020.0
20260504183722 82 0.0 0.0 0.00 0.00 0.00 87 1020.1
20260504183223 82 0.0 0.0 0.00 0.00 0.00 86 1020.1
20260504182723 82 0.0 0.0 0.00 0.00 0.00 86 1020.2
20260504182223 82 0.0 0.0 0.00 0.00 0.00 87 1020.3
20260504181722 81 0.0 0.0 0.00 0.00 0.00 89 1020.4
20260504181223 80 0.0 0.0 0.00 0.00 0.00 90 1020.5
20260504180723 80 0.0 0.0 0.00 0.00 0.00 89 1020.6
20260504180222 80 0.0 0.0 0.00 0.00 0.00 89 1020.7
20260504175723 81 0.0 0.0 0.00 0.00 0.00 87 1020.7
20260504175223 81 0.0 0.0 0.00 0.00 0.00 89 1020.7
20260504174723 82 0.0 0.0 0.00 0.00 0.00 87 1020.8
20260504174223 81 0.0 0.0 0.00 0.00 0.00 88 1020.9
20260504173723 82 0.0 0.0 0.00 0.00 0.00 86 1020.9
20260504173223 82 0.0 0.0 0.00 0.00 0.00 87 1021.0
20260504172722 82 0.0 0.0 0.00 0.00 0.00 87 1021.2
20260504172223 82 0.0 0.0 0.00 0.00 0.00 87 1021.2
20260504171723 81 0.0 0.0 0.00 0.00 0.00 88 1021.2
20260504171223 82 0.0 0.0 0.00 0.00 0.00 87 1021.2
20260504170722 82 0.0 0.0 0.00 0.00 0.00 87 1021.2
20260504170223 82 0.0 0.0 0.00 0.00 0.00 87 1021.1
20260504160223 83 0.0 0.0 0.00 0.00 0.00 85 1020.9
20260504150723 82 0.0 0.0 0.00 0.00 0.00 85 1021.1
20260504150222 82 0.0 0.0 0.00 0.00 0.00 85 1021.1
20260504141223 82 0.0 0.0 0.00 0.00 0.00 84 1021.2
20260504140722 83 0.0 0.0 0.00 0.00 0.00 83 1021.1
20260504140223 83 0.0 0.0 0.00 0.00 0.00 83 1021.0
20260504130724 83 0.0 0.0 0.00 0.00 0.00 82 1020.0
20260504130223 83 0.0 0.0 0.00 0.00 0.00 82 1019.8
20260504120222 84 0.0 0.0 0.00 0.00 0.00 81 1019.0
20260504110222 85 0.0 0.0 0.00 0.00 0.00 80 1017.8
20260504100222 85 0.0 0.0 0.00 0.00 0.00 78 1018.1
20260504081722 84 0.0 0.0 0.00 0.00 0.00 86 1018.8
20260504081222 84 0.0 0.0 0.00 0.00 0.00 86 1018.7
20260504080222 84 0.0 0.0 0.00 0.00 0.00 87 1019.0
20260504070222 82 0.0 0.0 0.00 0.00 0.00 90 1020.2
20260504060222 81 0.0 0.0 0.00 0.00 0.00 93 1021.4
20260504050722 80 0.0 0.0 0.00 0.00 0.00 93 1023.3
20260504050222 80 0.0 0.0 0.00 0.00 0.00 94 1023.4
20260504045722 80 0.0 0.0 0.00 0.00 0.00 94 1023.3
20260504045222 81 0.0 0.0 0.00 0.00 0.00 93 1023.3
20260504044722 81 0.0 0.0 0.00 0.00 0.00 92 1023.4
20260504044223 80 0.0 0.0 0.00 0.00 0.00 93 1023.3
20260504043722 79 0.0 0.0 0.00 0.00 0.00 96 1023.2
20260504043222 80 0.0 0.0 0.00 0.00 0.00 93 1023.3
20260504042722 81 0.0 0.0 0.00 0.00 0.00 91 1023.2
20260504042222 80 0.0 0.0 0.00 0.00 0.00 93 1023.2
20260504041722 78 0.0 0.0 0.00 0.00 0.00 96 1023.1
20260504041222 80 0.0 0.0 0.00 0.00 0.00 92 1022.9
20260504040722 79 0.0 0.0 0.00 0.00 0.00 95 1023.0
20260504040222 79 0.0 0.0 0.00 0.00 0.00 94 1023.5
20260504035722 80 0.0 0.0 0.00 0.00 0.00 93 1023.7
20260504035222 77 0.0 0.0 0.00 0.00 0.00 99 1023.9
20260504034723 77 0.0 0.0 0.00 0.00 0.00 98 1023.9
20260504034222 80 0.0 0.0 0.00 0.00 0.00 92 1023.7
20260504033722 79 0.0 0.0 0.00 0.00 0.00 94 1023.8
20260504033222 80 0.0 0.0 0.00 0.00 0.00 92 1023.8
20260504032722 80 0.0 0.0 0.00 0.00 0.00 94 1023.7
20260504032222 82 0.0 0.0 0.00 0.00 0.00 90 1023.5
20260504031722 82 0.0 0.0 0.00 0.00 0.00 90 1023.4
20260504031222 80 0.0 0.0 0.00 0.00 0.00 93 1023.4
20260504030722 83 0.0 0.0 0.00 0.00 0.00 89 1023.0
20260504030222 83 0.0 0.0 0.00 0.00 0.00 89 1022.8
20260504025722 83 0.0 0.0 0.00 0.00 0.00 89 1022.7
20260504025222 83 0.0 0.0 0.00 0.00 0.00 89 1022.7
20260504024722 83 0.0 0.0 0.00 0.00 0.00 89 1022.8
20260504024222 83 0.0 0.0 0.00 0.00 0.00 89 1022.9
20260504023722 83 0.0 0.0 0.00 0.00 0.00 89 1022.9
20260504023222 83 0.0 0.0 0.00 0.00 0.00 90 1023.0
20260504022722 83 0.0 0.0 0.00 0.00 0.00 90 1023.1
20260504022222 83 0.0 0.0 0.00 0.00 0.00 90 1023.1
20260504021722 83 0.0 0.0 0.00 0.00 0.00 90 1022.9
20260504021222 83 0.0 0.0 0.00 0.00 0.00 90 1022.8
20260504020722 83 0.0 0.0 0.00 0.00 0.00 90 1022.7
20260504020222 83 0.0 0.0 0.00 0.00 0.00 90 1022.5
20260504015722 83 0.0 0.0 0.00 0.00 0.00 90 1022.2
20260504015222 83 0.0 0.0 0.00 0.00 0.00 89 1022.2
20260504014722 82 0.0 0.0 0.00 0.00 0.00 90 1022.2
20260504014222 82 0.0 0.0 0.00 0.00 0.00 89 1022.1
20260504013722 82 0.0 0.0 0.00 0.00 0.00 89 1022.0
20260504013222 82 0.0 0.0 0.00 0.00 0.00 90 1021.8
20260504012722 82 0.0 0.0 0.00 0.00 0.00 89 1021.7
20260504012222 82 0.0 0.0 0.00 0.00 0.00 89 1021.6
20260504011722 82 0.0 0.0 0.00 0.00 0.00 90 1021.6
20260504011222 82 0.0 0.0 0.00 0.00 0.00 89 1021.6
20260504010722 82 0.0 0.0 0.00 0.00 0.00 89 1021.5
20260504010222 82 0.0 0.0 0.00 0.00 0.00 89 1021.5
20260504005722 82 0.0 0.0 0.00 0.00 0.00 90 1021.5
20260504005222 82 0.0 0.0 0.00 0.00 0.00 89 1021.6
20260504004722 82 0.0 0.0 0.00 0.00 0.00 89 1021.5
20260504004222 82 0.0 0.0 0.00 0.00 0.00 90 1021.4
20260504003722 82 0.0 0.0 0.00 0.00 0.00 89 1021.2
20260504003222 82 0.0 0.0 0.00 0.00 0.00 89 1021.1
20260504002722 82 0.0 0.0 0.00 0.00 0.00 89 1021.1
20260504002222 82 0.0 0.0 0.00 0.00 0.00 89 1021.0
20260504001722 82 0.0 0.0 0.00 0.00 0.00 89 1021.0
20260504001222 82 0.0 0.0 0.00 0.00 0.00 89 1020.9
20260504000722 82 0.0 0.0 0.00 0.00 0.00 89 1020.9
20260504000222 82 0.0 0.0 0.00 0.00 0.00 89 1020.8
20260503235722 82 0.0 0.0 0.00 0.00 0.00 89 1020.7
20260503235222 82 0.0 0.0 0.00 0.00 0.00 89 1020.8
20260503234722 82 0.0 0.0 0.00 0.00 0.00 89 1020.8
20260503234222 82 0.0 0.0 0.00 0.00 0.00 89 1020.7
20260503233722 82 0.0 0.0 0.00 0.00 0.00 88 1020.7
20260503233222 83 0.0 0.0 0.00 0.00 0.00 88 1020.4
20260503232722 82 0.0 0.0 0.00 0.00 0.00 88 1020.3
20260503232222 82 0.0 0.0 0.00 0.00 0.00 88 1020.3
20260503231722 82 0.0 0.0 0.00 0.00 0.00 90 1020.3
20260503231222 82 0.0 0.0 0.00 0.00 0.00 89 1020.3
20260503230722 82 0.0 0.0 0.00 0.00 0.00 89 1020.1
20260503230222 82 0.0 0.0 0.00 0.00 0.00 89 1020.1
20260503225722 82 0.0 0.0 0.00 0.00 0.00 89 1020.0
20260503225222 82 0.0 0.0 0.00 0.00 0.00 88 1019.9
20260503224722 82 0.0 0.0 0.00 0.00 0.00 88 1020.0
20260503224222 82 0.0 0.0 0.00 0.00 0.00 88 1020.0